User: anonymous   Login
Location: NJAA Observatory
(40.6819°N, 74.8979°W)
Time: 12:12:38
(UTC-05:00)
Language:

Cosmos 1939 Rocket - Orbit

View from above orbital plane
View from above orbital plane
View from above satellite
View from above satellite

Ground track
Ground track

The orbit data is extracted from the following two-line orbital elements,

1 19046U 88032B   17017.18800770 -.00000243  00000-0 -13569-4 0  9997
2 19046  97.5549  68.2982 0042255 119.8979 240.6454 15.02135523549974
Epoch (UTC): 17 January 2017 04:30:43
Eccentricity: 0.0042255
inclination: 97.5549°
perigee height: 531 km
apogee height: 589 km
right ascension of ascending node: 68.2982°
argument of perigee: 119.8979°
revolutions per day: 15.02135523
mean anomaly at epoch: 240.6454°
orbit number at epoch: 54997

The dashed part of the orbit path shows where the satellite is in the earth's shadow,  

DLR